This is the latest recevied weather packets stored in our database for station/object KD8DLP-13. If no packets are shown the sender has not sent any weather packets the latest 10 day(s).
| Time | Temp. | Humidity | Pressure | Rain* | Wind** | Luminosity | Snow |
|---|---|---|---|---|---|---|---|
| 1777922540 | 22.78° C | 40% | 1001 hPa | 0 mm | - | 561 W/m² | - |
| 1777922238 | 23.33° C | 38% | 1001 hPa | 0 mm | - | 510 W/m² | - |
| 1777921935 | 23.33° C | 38% | 1001 hPa | 0 mm | - | 540 W/m² | - |
| 1777921630 | 23.89° C | 37% | 1001 hPa | 0 mm | - | 639 W/m² | - |
| 1777921327 | 23.89° C | 36% | 1000.8 hPa | 0 mm | - | 646 W/m² | - |
| 1777921023 | 23.89° C | 34% | 1000.9 hPa | 0 mm | - | 625 W/m² | - |
| 1777920720 | 23.89° C | 32% | 1000.9 hPa | 0 mm | - | 642 W/m² | - |
| 1777920416 | 23.33° C | 33% | 1000.8 hPa | 0 mm | - | 739 W/m² | - |
| 1777920111 | 23.33° C | 32% | 1000.8 hPa | 0 mm | - | 592 W/m² | - |
| 1777919808 | 23.33° C | 34% | 1001 hPa | 0 mm | - | 534 W/m² | - |
| 1777919505 | 23.33° C | 36% | 1001 hPa | 0 mm | - | 631 W/m² | - |
| 1777919203 | 23.33° C | 33% | 1001 hPa | 0 mm | - | 675 W/m² | - |
| 1777918900 | 23.33° C | 32% | 1001 hPa | 0 mm | - | 654 W/m² | - |
| 1777918598 | 23.33° C | 31% | 1001.1 hPa | 0 mm | - | 625 W/m² | - |
| 1777918295 | 23.89° C | 34% | 1001.1 hPa | 0 mm | - | 712 W/m² | - |
| 1777917994 | 23.89° C | 29% | 1000.9 hPa | 0 mm | - | 670 W/m² | - |
| 1777917693 | 23.89° C | 30% | 1001.1 hPa | 0 mm | - | 708 W/m² | - |
| 1777917389 | 23.33° C | 29% | 1001.2 hPa | 0 mm | - | 660 W/m² | - |
| 1777917086 | 23.89° C | 30% | 1001.2 hPa | 0 mm | - | 738 W/m² | - |
| 1777916784 | 23.89° C | 29% | 1001.4 hPa | 0 mm | - | 720 W/m² | - |
| 1777916480 | 24.44° C | 30% | 1001.5 hPa | 0 mm | - | 779 W/m² | - |
| 1777916178 | 23.89° C | 30% | 1001.4 hPa | 0 mm | - | 778 W/m² | - |
| 1777915875 | 24.44° C | 31% | 1001.2 hPa | 0 mm | - | 777 W/m² | - |
| 1777915571 | 23.89° C | 30% | 1001.7 hPa | 0 mm | - | 786 W/m² | - |
| 1777915268 | 23.33° C | 32% | 1001.6 hPa | 0 mm | - | 748 W/m² | - |
* Rain latest hour (hover to see other rain measurements)
** Current wind speed in m/s (hover to see current wind gust speed)